This is the latest recevied weather packets stored in our database for station/object K0WOI. If no packets are shown the sender has not sent any weather packets the latest 10 day(s).
| Time | Temp. | Humidity | Pressure | Rain* | Wind** | Luminosity | Snow |
|---|---|---|---|---|---|---|---|
| 1777821728 | 19.44° C | 40% | 1008.6 hPa | 0 mm | - | 699 W/m² | - |
| 1777821425 | 18.89° C | 41% | 1008.7 hPa | 0 mm | - | 642 W/m² | - |
| 1777821122 | 18.33° C | 43% | 1008.8 hPa | 0 mm | - | 648 W/m² | - |
| 1777820818 | 18.33° C | 43% | 1008.9 hPa | 0 mm | - | 624 W/m² | - |
| 1777820515 | 18.33° C | 45% | 1008.8 hPa | 0 mm | - | 607 W/m² | - |
| 1777820211 | 17.78° C | 44% | 1008.9 hPa | 0 mm | - | 608 W/m² | - |
| 1777819909 | 17.78° C | 44% | 1008.9 hPa | 0 mm | - | 613 W/m² | - |
| 1777819606 | 17.78° C | 44% | 1008.6 hPa | 0 mm | - | 622 W/m² | - |
| 1777819304 | 17.22° C | 45% | 1008.8 hPa | 0 mm | - | 620 W/m² | - |
| 1777819000 | 17.22° C | 45% | 1008.8 hPa | 0 mm | - | 580 W/m² | - |
| 1777818698 | 16.67° C | 45% | 1008.6 hPa | 0 mm | - | 526 W/m² | - |
| 1777818394 | 16.67° C | 46% | 1008.7 hPa | 0 mm | - | 373 W/m² | - |
| 1777818091 | 16.11° C | 47% | 1008.9 hPa | 0 mm | - | 131 W/m² | - |
| 1777817787 | 16.11° C | 45% | 1008.9 hPa | 0 mm | - | 119 W/m² | - |
| 1777817485 | 16.11° C | 46% | 1008.7 hPa | 0 mm | - | 101 W/m² | - |
| 1777817181 | 15.56° C | 47% | 1008.8 hPa | 0 mm | - | 154 W/m² | - |
| 1777816879 | 15.56° C | 48% | 1009.1 hPa | 0 mm | - | 73 W/m² | - |
| 1777816576 | 15° C | 49% | 1008.9 hPa | 0 mm | - | 59 W/m² | - |
| 1777816272 | 15° C | 48% | 1009.2 hPa | 0 mm | - | 58 W/m² | - |
| 1777815970 | 15° C | 48% | 1009.2 hPa | 0 mm | - | 83 W/m² | - |
| 1777815667 | 14.44° C | 49% | 1008.9 hPa | 0 mm | - | 59 W/m² | - |
| 1777815364 | 13.89° C | 50% | 1009 hPa | 0 mm | - | 50 W/m² | - |
| 1777815061 | 13.89° C | 51% | 1009.1 hPa | 0 mm | - | 50 W/m² | - |
| 1777814757 | 13.33° C | 53% | 1009 hPa | 0 mm | - | 47 W/m² | - |
| 1777814454 | 13.33° C | 53% | 1008.8 hPa | 0 mm | - | 48 W/m² | - |
* Rain latest hour (hover to see other rain measurements)
** Current wind speed in m/s (hover to see current wind gust speed)